| time (UTC) | temp F | wind direction | speed MPH | gust MPH | rain 1hr in | rain 24hr in | rain mn in | humidity % | barometer mb |
| 20260904192241 | 87 | 148 | 12.0 | 14.0 | 0.00 | 0.00 | 0.00 | 70 | 1019.0 |
| 20260904191738 | 86 | 106 | 11.0 | 14.0 | 0.00 | 0.00 | 0.00 | 66 | 1018.9 |
| 20260904191234 | 86 | 73 | 10.0 | 14.0 | 0.00 | 0.00 | 0.00 | 71 | 1019.0 |
| 20260904190730 | 85 | 78 | 10.0 | 14.0 | 0.00 | 0.00 | 0.00 | 73 | 1019.1 |
| 20260904190225 | 84 | 95 | 9.0 | 14.0 | 0.00 | 0.00 | 0.00 | 75 | 1019.2 |
| 20260904185722 | 84 | 126 | 11.0 | 17.0 | 0.00 | 0.00 | 0.00 | 75 | 1019.4 |
| 20260904185222 | 84 | 115 | 16.0 | 21.0 | 0.00 | 0.00 | 0.00 | 75 | 1019.4 |
| 20260904184721 | 84 | 134 | 9.0 | 13.0 | 0.00 | 0.00 | 0.00 | 76 | 1019.3 |
| 20260904184217 | 84 | 141 | 9.0 | 13.0 | 0.00 | 0.00 | 0.00 | 76 | 1019.5 |
| 20260904183712 | 85 | 119 | 11.0 | 16.0 | 0.00 | 0.00 | 0.00 | 75 | 1019.5 |
| 20260904183207 | 85 | 127 | 11.0 | 14.0 | 0.00 | 0.00 | 0.00 | 75 | 1019.4 |
| 20260904182702 | 85 | 115 | 10.0 | 16.0 | 0.00 | 0.00 | 0.00 | 74 | 1019.4 |
| 20260904182157 | 85 | 111 | 9.0 | 14.0 | 0.00 | 0.00 | 0.00 | 75 | 1019.3 |
| 20260904181653 | 86 | 119 | 15.0 | 18.0 | 0.00 | 0.00 | 0.00 | 72 | 1019.7 |
| 20260904181152 | 86 | 160 | 9.0 | 17.0 | 0.00 | 0.00 | 0.00 | 69 | 1019.7 |
| 20260904180648 | 86 | 81 | 10.0 | 15.0 | 0.00 | 0.00 | 0.00 | 70 | 1019.6 |
| 20260904180143 | 86 | 217 | 6.0 | 16.0 | 0.00 | 0.00 | 0.00 | 71 | 1019.7 |
| 20260904175642 | 87 | 167 | 7.0 | 14.0 | 0.00 | 0.00 | 0.00 | 69 | 1020.0 |
| 20260904175140 | 87 | 104 | 10.0 | 13.0 | 0.00 | 0.00 | 0.00 | 67 | 1020.0 |
| 20260904174635 | 88 | 81 | 15.0 | 19.0 | 0.00 | 0.00 | 0.00 | 64 | 1020.1 |
| 20260904174132 | 89 | 190 | 9.0 | 16.0 | 0.00 | 0.00 | 0.00 | 63 | 1020.1 |
| 20260904173627 | 89 | 152 | 13.0 | 17.0 | 0.00 | 0.00 | 0.00 | 63 | 1020.3 |
| 20260904173122 | 88 | 168 | 11.0 | 18.0 | 0.00 | 0.00 | 0.00 | 65 | 1020.1 |
| 20260904172619 | 89 | 109 | 15.0 | 18.0 | 0.00 | 0.00 | 0.00 | 65 | 1020.2 |
| 20260904172117 | 90 | 115 | 14.0 | 16.0 | 0.00 | 0.00 | 0.00 | 64 | 1020.2 |
| 20260904171613 | 91 | 109 | 11.0 | 17.0 | 0.00 | 0.00 | 0.00 | 61 | 1020.2 |
| 20260904171108 | 91 | 72 | 12.0 | 16.0 | 0.00 | 0.00 | 0.00 | 59 | 1020.4 |
| 20260904170604 | 90 | 21 | 14.0 | 18.0 | 0.00 | 0.00 | 0.00 | 58 | 1020.5 |
| 20260904170100 | 89 | 123 | 10.0 | 17.0 | 0.00 | 0.00 | 0.00 | 64 | 1020.6 |
| 20260904165559 | 89 | 138 | 6.0 | 19.0 | 0.00 | 0.00 | 0.00 | 63 | 1020.7 |
| 20260904165058 | 90 | 126 | 11.0 | 16.0 | 0.00 | 0.00 | 0.00 | 62 | 1020.5 |
| 20260904164553 | 90 | 121 | 9.0 | 18.0 | 0.00 | 0.00 | 0.00 | 62 | 1020.4 |
| 20260904164049 | 91 | 154 | 13.0 | 17.0 | 0.00 | 0.00 | 0.00 | 59 | 1020.5 |
| 20260904163549 | 91 | 167 | 11.0 | 17.0 | 0.00 | 0.00 | 0.00 | 61 | 1020.6 |
| 20260904163044 | 89 | 145 | 9.0 | 18.0 | 0.00 | 0.00 | 0.00 | 63 | 1020.6 |
| 20260904162544 | 89 | 185 | 11.0 | 22.0 | 0.00 | 0.00 | 0.00 | 62 | 1020.7 |
| 20260904162040 | 90 | 104 | 12.0 | 17.0 | 0.00 | 0.00 | 0.00 | 61 | 1020.8 |
| 20260904161534 | 89 | 90 | 14.0 | 16.0 | 0.00 | 0.00 | 0.00 | 67 | 1020.8 |
| 20260904161030 | 90 | 120 | 13.0 | 18.0 | 0.00 | 0.00 | 0.00 | 64 | 1021.0 |
| 20260904160525 | 90 | 135 | 10.0 | 15.0 | 0.00 | 0.00 | 0.00 | 66 | 1021.1 |
| 20260904160021 | 90 | 113 | 9.0 | 16.0 | 0.00 | 0.00 | 0.00 | 64 | 1020.9 |
| 20260904155515 | 89 | 69 | 9.0 | 18.0 | 0.00 | 0.00 | 0.00 | 64 | 1021.3 |
| 20260904155014 | 90 | 129 | 14.0 | 18.0 | 0.00 | 0.00 | 0.00 | 63 | 1021.1 |
| 20260904154508 | 90 | 150 | 10.0 | 18.0 | 0.00 | 0.00 | 0.00 | 66 | 1021.3 |
| 20260904154003 | 88 | 92 | 12.0 | 15.0 | 0.00 | 0.00 | 0.00 | 65 | 1021.3 |
| 20260904153458 | 89 | 169 | 11.0 | 16.0 | 0.00 | 0.00 | 0.00 | 68 | 1021.3 |
| 20260904152955 | 89 | 92 | 13.0 | 17.0 | 0.00 | 0.00 | 0.00 | 65 | 1021.4 |
| 20260904152450 | 89 | 108 | 11.0 | 17.0 | 0.00 | 0.00 | 0.00 | 64 | 1021.3 |
| 20260904151949 | 89 | 127 | 9.0 | 15.0 | 0.00 | 0.00 | 0.00 | 64 | 1021.5 |
| 20260904151444 | 88 | 83 | 9.0 | 15.0 | 0.00 | 0.00 | 0.00 | 63 | 1021.4 |
| 20260904150938 | 88 | 103 | 11.0 | 18.0 | 0.00 | 0.00 | 0.00 | 68 | 1021.3 |
| 20260904150433 | 89 | 138 | 12.0 | 15.0 | 0.00 | 0.00 | 0.00 | 67 | 1021.3 |
| 20260904145931 | 88 | 157 | 13.0 | 18.0 | 0.00 | 0.00 | 0.00 | 68 | 1021.4 |
| 20260904145428 | 89 | 145 | 10.0 | 16.0 | 0.00 | 0.00 | 0.00 | 65 | 1021.6 |
| 20260904144923 | 88 | 131 | 9.0 | 15.0 | 0.00 | 0.00 | 0.00 | 67 | 1021.4 |
| 20260904144419 | 88 | 121 | 13.0 | 17.0 | 0.00 | 0.00 | 0.00 | 67 | 1021.4 |
| 20260904143914 | 88 | 105 | 12.0 | 16.0 | 0.00 | 0.00 | 0.00 | 66 | 1021.6 |
| 20260904143411 | 87 | 103 | 12.0 | 21.0 | 0.00 | 0.00 | 0.00 | 68 | 1021.7 |
| 20260904142908 | 86 | 109 | 15.0 | 17.0 | 0.00 | 0.00 | 0.00 | 69 | 1021.4 |
| 20260904142403 | 85 | 122 | 11.0 | 16.0 | 0.00 | 0.00 | 0.00 | 71 | 1021.5 |
| 20260904141902 | 85 | 124 | 10.0 | 14.0 | 0.00 | 0.00 | 0.00 | 72 | 1021.2 |
| 20260904141358 | 86 | 118 | 14.0 | 18.0 | 0.00 | 0.00 | 0.00 | 70 | 1021.4 |
| 20260904140854 | 86 | 145 | 14.0 | 16.0 | 0.00 | 0.00 | 0.00 | 71 | 1021.2 |
| 20260904140349 | 86 | 109 | 13.0 | 19.0 | 0.00 | 0.00 | 0.00 | 70 | 1021.3 |
| 20260904135848 | 86 | 103 | 13.0 | 17.0 | 0.00 | 0.00 | 0.00 | 71 | 1021.4 |
| 20260904135343 | 87 | 96 | 12.0 | 17.0 | 0.00 | 0.00 | 0.00 | 69 | 1021.3 |
| 20260904134839 | 87 | 105 | 11.0 | 17.0 | 0.00 | 0.00 | 0.00 | 69 | 1021.2 |
| 20260904134340 | 88 | 112 | 9.0 | 17.0 | 0.00 | 0.00 | 0.00 | 66 | 1021.2 |
| 20260904133839 | 88 | 91 | 13.0 | 17.0 | 0.00 | 0.00 | 0.00 | 66 | 1021.2 |
| 20260904133335 | 87 | 125 | 9.0 | 13.0 | 0.00 | 0.00 | 0.00 | 68 | 1021.2 |
| 20260904132835 | 87 | 100 | 10.0 | 11.0 | 0.00 | 0.00 | 0.00 | 68 | 1021.2 |
| 20260904132330 | 87 | 100 | 9.0 | 15.0 | 0.00 | 0.00 | 0.00 | 68 | 1021.1 |
| 20260904131830 | 87 | 130 | 8.0 | 14.0 | 0.00 | 0.00 | 0.00 | 68 | 1021.1 |
| 20260904131326 | 86 | 160 | 10.0 | 16.0 | 0.00 | 0.00 | 0.00 | 67 | 1021.0 |
| 20260904130826 | 86 | 103 | 10.0 | 18.0 | 0.00 | 0.00 | 0.00 | 68 | 1021.0 |
| 20260904130325 | 86 | 109 | 5.0 | 14.0 | 0.00 | 0.00 | 0.00 | 69 | 1021.0 |
| 20260904125821 | 86 | 343 | 2.0 | 11.0 | 0.00 | 0.00 | 0.00 | 70 | 1020.9 |
| 20260904125317 | 85 | 87 | 8.0 | 14.0 | 0.00 | 0.00 | 0.00 | 71 | 1021.0 |
| 20260904124816 | 84 | 79 | 6.0 | 11.0 | 0.00 | 0.00 | 0.00 | 70 | 1020.7 |
| 20260904124313 | 85 | 72 | 12.0 | 15.0 | 0.00 | 0.00 | 0.00 | 71 | 1020.9 |
| 20260904123813 | 84 | 91 | 8.0 | 14.0 | 0.00 | 0.00 | 0.00 | 72 | 1021.0 |
| 20260904123308 | 84 | 73 | 10.0 | 11.0 | 0.00 | 0.00 | 0.00 | 72 | 1021.0 |
| 20260904122803 | 84 | 76 | 8.0 | 13.0 | 0.00 | 0.00 | 0.00 | 72 | 1021.0 |
| 20260904122306 | 84 | 92 | 9.0 | 11.0 | 0.00 | 0.00 | 0.00 | 71 | 1021.0 |
| 20260904121758 | 84 | 93 | 6.0 | 11.0 | 0.00 | 0.00 | 0.00 | 71 | 1020.9 |
| 20260904121254 | 83 | 73 | 8.0 | 11.0 | 0.00 | 0.00 | 0.00 | 71 | 1020.6 |
| 20260904120750 | 83 | 98 | 6.0 | 15.0 | 0.00 | 0.00 | 0.00 | 73 | 1020.8 |
| 20260904120245 | 83 | 78 | 8.0 | 13.0 | 0.00 | 0.00 | 0.00 | 73 | 1020.8 |
| 20260904115741 | 83 | 55 | 10.0 | 14.0 | 0.00 | 0.00 | 0.00 | 72 | 1020.7 |
| 20260904115236 | 82 | 104 | 8.0 | 13.0 | 0.00 | 0.00 | 0.00 | 73 | 1020.5 |
| 20260904114731 | 82 | 156 | 3.0 | 14.0 | 0.00 | 0.00 | 0.00 | 74 | 1020.6 |
| 20260904114230 | 81 | 67 | 12.0 | 15.0 | 0.00 | 0.00 | 0.00 | 74 | 1020.5 |
| 20260904113725 | 81 | 49 | 8.0 | 13.0 | 0.00 | 0.00 | 0.00 | 74 | 1020.5 |
| 20260904113224 | 81 | 92 | 8.0 | 10.0 | 0.00 | 0.00 | 0.00 | 75 | 1020.3 |
| 20260904112719 | 80 | 60 | 10.0 | 17.0 | 0.00 | 0.00 | 0.00 | 75 | 1020.3 |
| 20260904112215 | 80 | 56 | 6.0 | 15.0 | 0.00 | 0.00 | 0.00 | 75 | 1020.3 |
| 20260904111711 | 80 | 79 | 9.0 | 13.0 | 0.00 | 0.00 | 0.00 | 74 | 1020.2 |
| 20260904111206 | 80 | 58 | 7.0 | 11.0 | 0.00 | 0.00 | 0.00 | 75 | 1020.2 |
| 20260904110702 | 80 | 85 | 11.0 | 14.0 | 0.00 | 0.00 | 0.00 | 76 | 1020.1 |
| 20260904110200 | 79 | 62 | 12.0 | 16.0 | 0.00 | 0.00 | 0.00 | 76 | 1019.9 |
| 20260904105655 | 79 | 101 | 6.0 | 18.0 | 0.00 | 0.00 | 0.00 | 77 | 1019.9 |
| 20260904105151 | 78 | 114 | 12.0 | 19.0 | 0.00 | 0.00 | 0.00 | 78 | 1020.0 |
| 20260904104646 | 78 | 85 | 9.0 | 16.0 | 0.00 | 0.00 | 0.00 | 79 | 1019.8 |
| 20260904104141 | 78 | 84 | 11.0 | 17.0 | 0.00 | 0.00 | 0.00 | 79 | 1019.6 |
| 20260904103638 | 78 | 73 | 10.0 | 18.0 | 0.00 | 0.00 | 0.00 | 80 | 1019.7 |
| 20260904103133 | 78 | 78 | 9.0 | 16.0 | 0.00 | 0.00 | 0.00 | 80 | 1019.6 |
| 20260904102629 | 78 | 96 | 10.0 | 16.0 | 0.00 | 0.00 | 0.00 | 81 | 1019.6 |
| 20260904102124 | 78 | 64 | 9.0 | 15.0 | 0.00 | 0.00 | 0.00 | 80 | 1019.6 |
| 20260904101621 | 78 | 87 | 11.0 | 17.0 | 0.00 | 0.00 | 0.00 | 80 | 1019.6 |
| 20260904101116 | 78 | 80 | 11.0 | 15.0 | 0.00 | 0.00 | 0.00 | 80 | 1019.6 |
| 20260904100612 | 77 | 84 | 14.0 | 17.0 | 0.00 | 0.00 | 0.00 | 80 | 1019.6 |
| 20260904100107 | 78 | 79 | 11.0 | 16.0 | 0.00 | 0.00 | 0.00 | 80 | 1019.5 |
| 20260904095601 | 78 | 51 | 12.0 | 16.0 | 0.00 | 0.00 | 0.00 | 80 | 1019.6 |
| 20260904095056 | 77 | 79 | 9.0 | 15.0 | 0.00 | 0.00 | 0.00 | 79 | 1019.4 |
| 20260904094550 | 77 | 124 | 10.0 | 16.0 | 0.00 | 0.00 | 0.00 | 80 | 1019.7 |
| 20260904094046 | 77 | 97 | 10.0 | 17.0 | 0.00 | 0.00 | 0.00 | 80 | 1019.5 |
| 20260904093543 | 78 | 52 | 9.0 | 14.0 | 0.00 | 0.00 | 0.00 | 80 | 1019.5 |
| 20260904093042 | 78 | 88 | 9.0 | 16.0 | 0.00 | 0.00 | 0.00 | 80 | 1019.3 |
| 20260904092538 | 78 | 77 | 10.0 | 17.0 | 0.00 | 0.00 | 0.00 | 79 | 1019.4 |
| 20260904092035 | 77 | 93 | 10.0 | 15.0 | 0.00 | 0.00 | 0.00 | 79 | 1019.4 |
| 20260904091531 | 78 | 49 | 12.0 | 18.0 | 0.00 | 0.00 | 0.00 | 80 | 1019.5 |
| 20260904091030 | 77 | 66 | 9.0 | 17.0 | 0.00 | 0.00 | 0.00 | 81 | 1019.3 |
| 20260904090526 | 77 | 111 | 10.0 | 14.0 | 0.00 | 0.00 | 0.00 | 82 | 1019.4 |
| 20260904090021 | 78 | 80 | 11.0 | 15.0 | 0.00 | 0.00 | 0.00 | 82 | 1019.2 |
| 20260904085516 | 77 | 56 | 12.0 | 14.0 | 0.00 | 0.00 | 0.00 | 82 | 1019.3 |
| 20260904085016 | 77 | 84 | 9.0 | 16.0 | 0.00 | 0.00 | 0.00 | 83 | 1019.0 |
| 20260904084512 | 77 | 81 | 10.0 | 14.0 | 0.00 | 0.00 | 0.00 | 83 | 1018.9 |
| 20260904084008 | 77 | 63 | 8.0 | 14.0 | 0.00 | 0.00 | 0.00 | 83 | 1019.1 |
| 20260904083504 | 77 | 78 | 10.0 | 13.0 | 0.00 | 0.00 | 0.00 | 83 | 1019.2 |
| 20260904082959 | 78 | 96 | 8.0 | 15.0 | 0.00 | 0.00 | 0.00 | 83 | 1019.0 |
| 20260904082454 | 78 | 83 | 12.0 | 15.0 | 0.00 | 0.00 | 0.00 | 83 | 1018.9 |
| 20260904081949 | 78 | 87 | 6.0 | 13.0 | 0.00 | 0.00 | 0.00 | 83 | 1018.9 |
| 20260904081444 | 78 | 53 | 9.0 | 11.0 | 0.00 | 0.00 | 0.00 | 83 | 1018.9 |
| 20260904080940 | 78 | 71 | 11.0 | 14.0 | 0.00 | 0.00 | 0.00 | 83 | 1018.9 |
| 20260904080435 | 78 | 51 | 6.0 | 13.0 | 0.00 | 0.00 | 0.00 | 83 | 1018.9 |
| 20260904075931 | 78 | 134 | 8.0 | 11.0 | 0.00 | 0.00 | 0.00 | 82 | 1019.0 |
| 20260904075427 | 78 | 89 | 6.0 | 14.0 | 0.00 | 0.00 | 0.00 | 82 | 1019.1 |
| 20260904074925 | 78 | 74 | 7.0 | 11.0 | 0.00 | 0.00 | 0.00 | 82 | 1019.2 |
| 20260904074421 | 78 | 72 | 8.0 | 14.0 | 0.00 | 0.00 | 0.00 | 82 | 1019.1 |
| 20260904073916 | 78 | 96 | 7.0 | 13.0 | 0.00 | 0.00 | 0.00 | 81 | 1019.1 |
| 20260904073412 | 78 | 95 | 9.0 | 14.0 | 0.00 | 0.00 | 0.00 | 81 | 1019.3 |
| 20260904072907 | 78 | 92 | 7.0 | 11.0 | 0.00 | 0.00 | 0.00 | 81 | 1019.1 |
| 20260904072402 | 78 | 84 | 7.0 | 9.0 | 0.00 | 0.00 | 0.00 | 81 | 1019.3 |
| 20260904071857 | 78 | 87 | 8.0 | 13.0 | 0.00 | 0.00 | 0.00 | 81 | 1019.3 |
| 20260904071353 | 78 | 96 | 10.0 | 11.0 | 0.00 | 0.00 | 0.00 | 81 | 1019.3 |
| 20260904070847 | 78 | 71 | 7.0 | 14.0 | 0.00 | 0.00 | 0.00 | 81 | 1019.4 |
| 20260904070346 | 78 | 82 | 6.0 | 11.0 | 0.00 | 0.00 | 0.00 | 81 | 1019.2 |
| 20260904065841 | 78 | 70 | 10.0 | 13.0 | 0.00 | 0.00 | 0.00 | 82 | 1019.4 |
| 20260904065338 | 78 | 59 | 8.0 | 14.0 | 0.00 | 0.00 | 0.00 | 82 | 1019.3 |
| 20260904064832 | 77 | 85 | 8.0 | 13.0 | 0.00 | 0.00 | 0.00 | 82 | 1019.3 |
| 20260904064328 | 77 | 76 | 8.0 | 13.0 | 0.00 | 0.00 | 0.00 | 83 | 1019.3 |
| 20260904063819 | 78 | 37 | 5.0 | 11.0 | 0.00 | 0.00 | 0.00 | 83 | 1019.4 |
| 20260904063314 | 78 | 72 | 8.0 | 13.0 | 0.00 | 0.00 | 0.00 | 82 | 1019.3 |
| 20260904062810 | 77 | 81 | 11.0 | 14.0 | 0.00 | 0.00 | 0.00 | 83 | 1019.4 |
| 20260904062306 | 77 | 65 | 8.0 | 14.0 | 0.00 | 0.00 | 0.00 | 84 | 1019.4 |
| 20260904061801 | 77 | 77 | 6.0 | 14.0 | 0.00 | 0.00 | 0.00 | 84 | 1019.6 |
| 20260904061257 | 78 | 80 | 9.0 | 13.0 | 0.00 | 0.00 | 0.00 | 85 | 1019.4 |
| 20260904060754 | 78 | 90 | 6.0 | 11.0 | 0.00 | 0.00 | 0.00 | 85 | 1019.5 |
| 20260904060249 | 78 | 78 | 7.0 | 10.0 | 0.00 | 0.00 | 0.00 | 85 | 1019.7 |
| 20260904055744 | 78 | 61 | 9.0 | 13.0 | 0.00 | 0.00 | 0.00 | 85 | 1019.8 |
| 20260904055244 | 78 | 87 | 9.0 | 11.0 | 0.00 | 0.00 | 0.00 | 85 | 1019.8 |
| 20260904054740 | 78 | 74 | 7.0 | 10.0 | 0.00 | 0.00 | 0.00 | 85 | 1019.7 |
| 20260904054236 | 78 | 102 | 10.0 | 16.0 | 0.00 | 0.00 | 0.00 | 85 | 1019.9 |
| 20260904053731 | 78 | 88 | 6.0 | 10.0 | 0.00 | 0.00 | 0.00 | 85 | 1019.9 |
| 20260904053230 | 78 | 87 | 9.0 | 10.0 | 0.00 | 0.00 | 0.00 | 85 | 1019.8 |
| 20260904052727 | 78 | 89 | 10.0 | 11.0 | 0.00 | 0.00 | 0.00 | 85 | 1020.1 |
| 20260904052222 | 78 | 106 | 7.0 | 13.0 | 0.00 | 0.00 | 0.00 | 86 | 1020.2 |
| 20260904051719 | 78 | 68 | 9.0 | 11.0 | 0.00 | 0.00 | 0.00 | 86 | 1020.2 |
| 20260904051214 | 78 | 348 | 6.0 | 8.0 | 0.00 | 0.00 | 0.00 | 86 | 1020.0 |
| 20260904050714 | 78 | 75 | 7.0 | 10.0 | 0.00 | 0.00 | 0.00 | 86 | 1020.1 |
| 20260904050211 | 78 | 54 | 6.0 | 8.0 | 0.00 | 0.00 | 0.00 | 87 | 1020.4 |
| 20260904045710 | 78 | 63 | 6.0 | 9.0 | 0.00 | 0.00 | 0.00 | 87 | 1020.3 |
| 20260904045205 | 78 | 80 | 6.0 | 9.0 | 0.00 | 0.00 | 0.00 | 87 | 1020.3 |
| 20260904044701 | 78 | 100 | 6.0 | 8.0 | 0.00 | 0.00 | 0.00 | 88 | 1020.5 |
| 20260904044157 | 78 | 74 | 5.0 | 7.0 | 0.00 | 0.00 | 0.00 | 88 | 1020.4 |
| 20260904043653 | 78 | 85 | 3.0 | 4.0 | 0.00 | 0.00 | 0.00 | 88 | 1020.4 |
| 20260904043148 | 78 | 82 | 4.0 | 7.0 | 0.00 | 0.00 | 0.00 | 89 | 1020.3 |
| 20260904042644 | 77 | 72 | 6.0 | 8.0 | 0.00 | 0.00 | 0.00 | 89 | 1020.5 |
| 20260904042140 | 78 | 100 | 4.0 | 4.0 | 0.00 | 0.00 | 0.00 | 89 | 1020.6 |
| 20260904041635 | 78 | 117 | 4.0 | 4.0 | 0.00 | 0.00 | 0.00 | 90 | 1020.8 |
| 20260904041131 | 78 | 349 | 3.0 | 4.0 | 0.00 | 0.00 | 0.00 | 90 | 1020.8 |
| 20260904040627 | 78 | 349 | 3.0 | 4.0 | 0.00 | 0.00 | 0.00 | 90 | 1020.7 |
| 20260904040123 | 78 | 86 | 3.0 | 4.0 | 0.00 | 0.00 | 0.00 | 90 | 1020.9 |
| 20260904035619 | 78 | 81 | 2.0 | 4.0 | 0.00 | 0.16 | 0.16 | 91 | 1020.8 |
| 20260904035118 | 78 | 84 | 2.0 | 4.0 | 0.00 | 0.16 | 0.16 | 91 | 1021.0 |
| 20260904034613 | 78 | 90 | 4.0 | 4.0 | 0.00 | 0.16 | 0.16 | 91 | 1021.0 |
| 20260904034108 | 78 | 112 | 3.0 | 4.0 | 0.00 | 0.16 | 0.16 | 91 | 1021.1 |
| 20260904033604 | 78 | 170 | 2.0 | 3.0 | 0.00 | 0.16 | 0.16 | 91 | 1020.9 |
| 20260904033101 | 0 | 0.0 | 0.0 | 0.00 | 0.00 | 0.00 | 1020.9 | ||
| 20260904032556 | 0 | 0.0 | 0.0 | 0.00 | 0.00 | 0.00 | 1020.9 | ||
| 20260904032055 | 0 | 0.0 | 0.0 | 0.00 | 0.00 | 0.00 | 1020.9 | ||
| 20260904031554 | 77 | 77 | 4.0 | 4.0 | 0.00 | 0.16 | 0.16 | 92 | 1021.0 |
| 20260904031051 | 77 | 77 | 4.0 | 4.0 | 0.00 | 0.16 | 0.16 | 92 | 1021.0 |
| 20260904030547 | 77 | 77 | 4.0 | 4.0 | 0.00 | 0.16 | 0.16 | 92 | 1020.9 |
| 20260904030042 | 77 | 77 | 4.0 | 4.0 | 0.00 | 0.16 | 0.16 | 92 | 1020.9 |
| 20260904025537 | 77 | 77 | 4.0 | 4.0 | 0.00 | 0.16 | 0.16 | 92 | 1020.9 |
| 20260904025032 | 77 | 77 | 4.0 | 4.0 | 0.00 | 0.16 | 0.16 | 92 | 1021.0 |
| 20260904024527 | 77 | 77 | 4.0 | 4.0 | 0.00 | 0.16 | 0.16 | 92 | 1020.9 |
| 20260904024023 | 77 | 77 | 4.0 | 4.0 | 0.00 | 0.16 | 0.16 | 92 | 1021.1 |
| 20260904023519 | 77 | 77 | 4.0 | 4.0 | 0.00 | 0.16 | 0.16 | 92 | 1020.8 |
| 20260904023015 | 77 | 77 | 4.0 | 4.0 | 0.00 | 0.16 | 0.16 | 92 | 1020.8 |
| 20260904022514 | 77 | 77 | 4.0 | 4.0 | 0.00 | 0.16 | 0.16 | 92 | 1020.7 |
| 20260904022012 | 77 | 77 | 4.0 | 4.0 | 0.00 | 0.16 | 0.16 | 92 | 1020.8 |
| 20260904021507 | 77 | 104 | 3.0 | 6.0 | 0.00 | 0.16 | 0.16 | 92 | 1020.6 |
| 20260904021002 | 77 | 84 | 4.0 | 4.0 | 0.00 | 0.16 | 0.16 | 93 | 1020.8 |
| 20260904020457 | 76 | 36 | 3.0 | 4.0 | 0.00 | 0.16 | 0.16 | 93 | 1020.8 |
| 20260904015955 | 76 | 26 | 3.0 | 4.0 | 0.00 | 0.16 | 0.16 | 93 | 1020.7 |
| 20260904015451 | 76 | 19 | 6.0 | 9.0 | 0.00 | 0.16 | 0.16 | 93 | 1020.6 |
| 20260904014949 | 76 | 11 | 6.0 | 8.0 | 0.00 | 0.16 | 0.16 | 93 | 1020.7 |
| 20260904014444 | 76 | 3 | 6.0 | 7.0 | 0.00 | 0.16 | 0.16 | 93 | 1020.7 |
| 20260904013940 | 76 | 3 | 6.0 | 7.0 | 0.00 | 0.16 | 0.16 | 93 | 1020.6 |
| 20260904013436 | 75 | 9 | 5.0 | 7.0 | 0.00 | 0.16 | 0.16 | 93 | 1020.6 |
| 20260904012933 | 75 | 29 | 5.0 | 9.0 | 0.00 | 0.16 | 0.16 | 93 | 1020.5 |
| 20260904012432 | 75 | 43 | 9.0 | 10.0 | 0.00 | 0.16 | 0.16 | 93 | 1020.5 |
| 20260904011927 | 76 | 0 | 8.0 | 10.0 | 0.00 | 0.16 | 0.16 | 92 | 1020.5 |
| 20260904011421 | 76 | 0 | 8.0 | 10.0 | 0.00 | 0.16 | 0.16 | 92 | 1020.5 |
| 20260904010917 | 76 | 39 | 7.0 | 10.0 | 0.00 | 0.16 | 0.16 | 92 | 1020.5 |
| 20260904010413 | 76 | 67 | 6.0 | 11.0 | 0.00 | 0.16 | 0.16 | 92 | 1020.2 |
| 20260904005908 | 76 | 46 | 6.0 | 9.0 | 0.00 | 0.16 | 0.16 | 92 | 1020.3 |
| 20260904005404 | 76 | 4 | 7.0 | 10.0 | 0.00 | 0.16 | 0.16 | 92 | 1020.4 |
| 20260904004858 | 76 | 45 | 7.0 | 10.0 | 0.00 | 0.16 | 0.16 | 92 | 1020.2 |
| 20260904004355 | 76 | 35 | 7.0 | 9.0 | 0.00 | 0.16 | 0.16 | 92 | 1020.1 |
| 20260904003855 | 76 | 20 | 6.0 | 8.0 | 0.00 | 0.16 | 0.16 | 92 | 1020.2 |
| 20260904003351 | 76 | 24 | 5.0 | 8.0 | 0.00 | 0.16 | 0.16 | 92 | 1020.3 |
| 20260904002845 | 76 | 37 | 6.0 | 8.0 | 0.00 | 0.16 | 0.16 | 92 | 1020.2 |
| 20260904002342 | 76 | 5 | 7.0 | 8.0 | 0.00 | 0.16 | 0.16 | 91 | 1020.1 |
| 20260904001841 | 76 | 354 | 7.0 | 11.0 | 0.00 | 0.16 | 0.16 | 91 | 1020.2 |
| 20260904001337 | 76 | 12 | 8.0 | 10.0 | 0.00 | 0.16 | 0.16 | 91 | 1020.0 |
| 20260904000832 | 76 | 30 | 5.0 | 8.0 | 0.07 | 0.16 | 0.16 | 91 | 1020.0 |
| 20260904000333 | 76 | 350 | 5.0 | 7.0 | 0.07 | 0.16 | 0.16 | 90 | 1019.9 |
| 20260903235831 | 77 | 28 | 6.0 | 8.0 | 0.00 | 0.15 | 0.15 | 88 | 1020.1 |
| 20260903235327 | 77 | 28 | 6.0 | 8.0 | 0.05 | 0.15 | 0.15 | 88 | 1020.2 |
| 20260903234826 | 77 | 28 | 6.0 | 8.0 | 0.05 | 0.15 | 0.15 | 88 | 1020.0 |
| 20260903234323 | 78 | 53 | 9.0 | 10.0 | 0.00 | 0.14 | 0.14 | 88 | 1020.1 |
| 20260903233819 | 78 | 45 | 5.0 | 9.0 | 0.00 | 0.14 | 0.14 | 87 | 1020.0 |
| 20260903233314 | 78 | 12 | 4.0 | 7.0 | 0.00 | 0.14 | 0.14 | 87 | 1019.8 |
| 20260903232813 | 78 | 6 | 6.0 | 7.0 | 0.00 | 0.14 | 0.14 | 86 | 1019.7 |
| 20260903232309 | 78 | 347 | 5.0 | 7.0 | 0.00 | 0.14 | 0.14 | 87 | 1019.8 |
| 20260903231808 | 78 | 350 | 5.0 | 6.0 | 0.00 | 0.14 | 0.14 | 87 | 1019.7 |
| 20260903231304 | 78 | 351 | 6.0 | 7.0 | 0.00 | 0.14 | 0.14 | 87 | 1019.6 |
| 20260903230800 | 78 | 341 | 6.0 | 7.0 | 0.00 | 0.14 | 0.14 | 87 | 1019.7 |
| 20260903230300 | 78 | 321 | 5.0 | 6.0 | 0.00 | 0.14 | 0.14 | 87 | 1019.7 |
| 20260903225756 | 78 | 308 | 5.0 | 6.0 | 0.00 | 0.14 | 0.14 | 86 | 1019.6 |
| 20260903225252 | 78 | 309 | 5.0 | 6.0 | 0.00 | 0.14 | 0.14 | 86 | 1019.5 |
| 20260903224748 | 78 | 352 | 5.0 | 7.0 | 0.07 | 0.14 | 0.14 | 86 | 1019.7 |
| 20260903224244 | 78 | 322 | 4.0 | 4.0 | 0.07 | 0.14 | 0.14 | 86 | 1019.5 |
| 20260903223739 | 79 | 315 | 4.0 | 4.0 | 0.00 | 0.13 | 0.13 | 85 | 1019.9 |
| 20260903223237 | 79 | 331 | 4.0 | 6.0 | 0.05 | 0.13 | 0.13 | 84 | 1019.7 |
| 20260903222733 | 79 | 338 | 4.0 | 4.0 | 0.59 | 0.13 | 0.13 | 83 | 1019.6 |
| 20260903222232 | 79 | 311 | 7.0 | 8.0 | 0.59 | 0.11 | 0.11 | 82 | 1019.8 |
| 20260903221727 | 80 | 276 | 2.0 | 4.0 | 0.19 | 0.03 | 0.03 | 81 | 1019.6 |
| 20260903221225 | 80 | 355 | 3.0 | 4.0 | 0.00 | 0.00 | 0.00 | 80 | 1019.6 |
| 20260903220724 | 81 | 300 | 4.0 | 6.0 | 0.00 | 0.00 | 0.00 | 80 | 1019.6 |
| 20260903220219 | 82 | 256 | 0.0 | 3.0 | 0.00 | 0.00 | 0.00 | 79 | 1019.4 |
| 20260903215718 | 82 | 167 | 3.0 | 4.0 | 0.00 | 0.00 | 0.00 | 78 | 1019.3 |
| 20260903215213 | 83 | 235 | 2.0 | 4.0 | 0.00 | 0.00 | 0.00 | 77 | 1019.3 |
| 20260903214711 | 83 | 57 | 2.0 | 4.0 | 0.00 | 0.00 | 0.00 | 76 | 1019.5 |
| 20260903214208 | 83 | 109 | 5.0 | 7.0 | 0.00 | 0.00 | 0.00 | 76 | 1019.5 |
| 20260903213702 | 83 | 104 | 3.0 | 4.0 | 0.00 | 0.00 | 0.00 | 76 | 1019.3 |
| 20260903213158 | 83 | 140 | 3.0 | 6.0 | 0.00 | 0.00 | 0.00 | 76 | 1019.4 |
| 20260903212654 | 83 | 111 | 4.0 | 7.0 | 0.00 | 0.00 | 0.00 | 76 | 1019.3 |
| 20260903212150 | 83 | 141 | 4.0 | 9.0 | 0.00 | 0.00 | 0.00 | 75 | 1019.5 |
| 20260903211643 | 83 | 95 | 3.0 | 9.0 | 0.00 | 0.00 | 0.00 | 75 | 1019.4 |
| 20260903211140 | 83 | 92 | 6.0 | 9.0 | 0.00 | 0.00 | 0.00 | 75 | 1019.4 |
| 20260903210636 | 83 | 115 | 7.0 | 9.0 | 0.00 | 0.00 | 0.00 | 75 | 1019.6 |
| 20260903210131 | 83 | 126 | 8.0 | 11.0 | 0.00 | 0.00 | 0.00 | 75 | 1019.3 |
| 20260903205630 | 83 | 129 | 4.0 | 8.0 | 0.00 | 0.00 | 0.00 | 75 | 1019.1 |
| 20260903205125 | 83 | 169 | 4.0 | 9.0 | 0.00 | 0.00 | 0.00 | 76 | 1019.3 |
| 20260903204620 | 83 | 129 | 9.0 | 10.0 | 0.00 | 0.00 | 0.00 | 75 | 1019.3 |
| 20260903204115 | 83 | 190 | 4.0 | 10.0 | 0.00 | 0.00 | 0.00 | 75 | 1019.4 |
| 20260903203611 | 83 | 172 | 7.0 | 11.0 | 0.00 | 0.00 | 0.00 | 76 | 1019.2 |
| 20260903203106 | 83 | 126 | 8.0 | 9.0 | 0.00 | 0.00 | 0.00 | 75 | 1019.2 |
| 20260903202601 | 83 | 113 | 5.0 | 9.0 | 0.00 | 0.00 | 0.00 | 76 | 1019.3 |
| 20260903202056 | 83 | 140 | 6.0 | 9.0 | 0.00 | 0.00 | 0.00 | 75 | 1019.3 |
| 20260903201551 | 83 | 201 | 6.0 | 9.0 | 0.00 | 0.00 | 0.00 | 75 | 1019.2 |
| 20260903201050 | 84 | 112 | 9.0 | 13.0 | 0.00 | 0.00 | 0.00 | 75 | 1019.2 |
| 20260903200540 | 84 | 106 | 8.0 | 10.0 | 0.00 | 0.00 | 0.00 | 74 | 1019.4 |
| 20260903200035 | 84 | 102 | 6.0 | 10.0 | 0.00 | 0.00 | 0.00 | 73 | 1019.5 |
| 20260903195530 | 84 | 112 | 4.0 | 11.0 | 0.00 | 0.00 | 0.00 | 73 | 1019.5 |
| 20260903195026 | 84 | 120 | 4.0 | 11.0 | 0.00 | 0.00 | 0.00 | 74 | 1019.3 |
| 20260903194521 | 84 | 99 | 8.0 | 14.0 | 0.00 | 0.00 | 0.00 | 73 | 1019.3 |
| 20260903194016 | 84 | 74 | 5.0 | 11.0 | 0.00 | 0.00 | 0.00 | 72 | 1019.1 |
| 20260903193512 | 84 | 103 | 5.0 | 11.0 | 0.00 | 0.00 | 0.00 | 71 | 1019.3 |
| 20260903193007 | 85 | 119 | 8.0 | 15.0 | 0.00 | 0.00 | 0.00 | 69 | 1019.1 |
| 20260903192504 | 86 | 73 | 10.0 | 18.0 | 0.00 | 0.00 | 0.00 | 65 | 1019.2 |